Tracking 19831 objects as of 23-Aug-2019
HD Live streaming from Space Station
objects crossing your sky now

FENGYUN 1C DEB

Track FENGYUN 1C DEB now!
10-day predictions


NORAD ID: 29818
Int'l Code: 1999-025DL
Perigee: 806.3 km
Apogee: 975.9 km
Inclination: 98.9 °
Period: 102.6 minutes
Semi major axis: 7262 km
RCS: 0.141 m2 (medium)
Launch date: May 10, 1999
Source: People's Republic of China (PRC)
Launch site: Taiyaun Space Center, China (TSC)

Note: This is SATELLITE DEBRIS
aabbcc
Your satellite tracking list
Your tracking list is empty




NASA's NSSDC Master Catalog

Two Line Element Set (TLE):
1 29818U 99025DL  19234.36674416 -.00000075 +00000-0 -19120-4 0  9990
2 29818 098.9019 144.9744 0116804 341.6481 129.9832 14.02838747644884
Source of the keplerian elements: AFSPC